Location: Adrasan
(36.3319°N, 30.4314°E)
Time: 10:26:21
(UTC+00:00)

Cosmos 1110 Rocket - Pass Details

Date: 09 December 2023
Orbit: 751 x 779 km, 74.0° (Epoch: 20 February)

Event Time Altitude Azimuth Distance (km) Brightness Sun altitude
Rises 16:10:55 0° 183° (S) 3,213 7.5 -17.2°
Reaches altitude 10° 16:13:19 10° 178° (S) 2,296 6.6 -17.7°
Maximum altitude 16:18:22 52° 103° (ESE) 950 4.1 -18.6°
Enters shadow 16:20:37 31° 44° (NE) 1,334 4.8 -19.1°
